DLH110 EDDS-EDDP

Flight info

Callsign DLH110
Flight time N/A
Altitude 35000
Route OKIBA4H/07 OKIBA N851 RIMKI Z99 LOHRE N746 TIKNI T279 TAMEB T955 GOXLI GOXLI1R
Aircraft A320/M-SDE3FGHIRWY/LB1

Departure

Time 2026-04-30 22:29
Airport Stuttgart Airport (EDDS)

Arrival

Time N/A
Airport Leipzig/Halle Airport (EDDP)
Time Latitude Longitude Altitude Speed Heading
2026-04-30 22:05 48.68870 9.19288 1316 ft 0 kts 344°
2026-04-30 22:20 48.68869 9.19288 1315 ft 1 kts 344°
2026-04-30 22:20 48.68826 9.19308 1315 ft 4 kts 348°
2026-04-30 22:20 48.68801 9.19309 1314 ft 4 kts 25°
2026-04-30 22:21 48.68786 9.19286 1315 ft 3 kts 74°
2026-04-30 22:21 48.68782 9.19262 1315 ft 0 kts 74°
2026-04-30 22:23 48.68786 9.19285 1315 ft 7 kts 74°
2026-04-30 22:23 48.68808 9.19390 1313 ft 12 kts 72°
2026-04-30 22:23 48.68834 9.19530 1311 ft 16 kts 74°
2026-04-30 22:23 48.68865 9.19699 1308 ft 15 kts 73°
2026-04-30 22:24 48.68888 9.19843 1303 ft 14 kts 99°
2026-04-30 22:24 48.68792 9.19939 1295 ft 20 kts 158°
2026-04-30 22:24 48.68738 9.19963 1292 ft 0 kts 163°
2026-04-30 22:26 48.68734 9.19964 1292 ft 2 kts 163°
2026-04-30 22:26 48.68688 9.19985 1289 ft 12 kts 163°
2026-04-30 22:27 48.68658 9.19998 1287 ft 0 kts 163°
2026-04-30 22:27 48.68648 9.20003 1289 ft 6 kts 162°
2026-04-30 22:28 48.68607 9.20186 1282 ft 2 kts 73°
2026-04-30 22:28 48.68613 9.20216 1280 ft 4 kts 73°
2026-04-30 22:29 48.69051 9.22540 1438 ft 149 kts 75°
2026-04-30 22:29 48.69342 9.24060 2116 ft 153 kts 75°
2026-04-30 22:30 48.70999 9.30034 4962 ft 156 kts 67°
2026-04-30 22:31 48.74666 9.31578 5992 ft 240 kts 360°
2026-04-30 22:32 48.80222 9.31051 7995 ft 281 kts
2026-04-30 22:32 48.84186 9.30966 9821 ft 289 kts
2026-04-30 22:33 48.90704 9.31066 11198 ft 346 kts
2026-04-30 22:33 48.95673 9.31174 12425 ft 363 kts
2026-04-30 22:34 49.03346 9.31290 14755 ft 371 kts
2026-04-30 22:35 49.08542 9.31381 16154 ft 376 kts
2026-04-30 22:36 49.19170 9.31561 18719 ft 388 kts
2026-04-30 22:36 49.21889 9.31603 19258 ft 392 kts
2026-04-30 22:37 49.30159 9.31076 20875 ft 401 kts 359°
2026-04-30 22:37 49.32911 9.30804 21377 ft 404 kts 360°
2026-04-30 22:37 49.38492 9.31315 22360 ft 401 kts 20°
2026-04-30 22:38 49.43294 9.35591 23358 ft 401 kts 38°
2026-04-30 22:38 49.47832 9.40664 24257 ft 406 kts 38°
2026-04-30 22:39 49.50079 9.43206 24658 ft 408 kts 38°
2026-04-30 22:39 49.56970 9.50986 25943 ft 412 kts 38°
2026-04-30 22:40 49.63965 9.58852 27083 ft 418 kts 37°
2026-04-30 22:41 49.71061 9.66865 28122 ft 424 kts 37°
2026-04-30 22:41 49.75815 9.72253 28783 ft 428 kts 37°
2026-04-30 22:42 49.85479 9.83257 30281 ft 431 kts 37°
2026-04-30 22:43 49.90301 9.88760 30393 ft 429 kts 37°
2026-04-30 22:44 49.99866 9.99736 30430 ft 429 kts 37°
2026-04-30 22:45 50.14205 10.16292 30429 ft 425 kts 37°
2026-04-30 22:47 50.28463 10.32866 30434 ft 427 kts 37°
2026-04-30 22:48 50.37948 10.43987 30440 ft 427 kts 37°
2026-04-30 22:49 50.45088 10.52364 30186 ft 424 kts 37°
2026-04-30 22:49 50.52213 10.60787 27071 ft 432 kts 37°
2026-04-30 22:50 50.61798 10.72160 24631 ft 427 kts 38°
2026-04-30 22:51 50.66495 10.77742 23373 ft 419 kts 38°
2026-04-30 22:51 50.71109 10.83239 22061 ft 410 kts 38°
2026-04-30 22:52 50.73371 10.85940 21417 ft 406 kts 38°
2026-04-30 22:52 50.77828 10.91286 19995 ft 398 kts 38°
2026-04-30 22:53 50.82206 10.96541 18604 ft 391 kts 39°
2026-04-30 22:53 50.86500 11.01703 17057 ft 385 kts 39°
2026-04-30 22:53 50.88625 11.04266 16312 ft 382 kts 39°
2026-04-30 22:54 50.92805 11.09310 14907 ft 378 kts 39°
2026-04-30 22:55 50.99026 11.16850 12701 ft 372 kts 39°
2026-04-30 22:55 51.03102 11.21819 11262 ft 367 kts 39°
2026-04-30 22:56 51.06440 11.25878 10413 ft 357 kts 39°
2026-04-30 22:56 51.12018 11.32667 9472 ft 319 kts 40°
2026-04-30 22:57 51.15438 11.36845 8849 ft 300 kts 40°
2026-04-30 22:57 51.18665 11.40806 8240 ft 286 kts 40°
2026-04-30 22:58 51.21749 11.44595 7632 ft 274 kts 40°
2026-04-30 22:59 51.26135 11.50004 6758 ft 264 kts 40°
2026-04-30 22:59 51.30462 11.55341 5825 ft 260 kts 40°